Time,TemperatureF,DewpointF,PressureIn,WindDirection,WindDirectionDegrees,WindSpeedMPH,WindSpeedGustMPH,Humidity,HourlyPrecipIn,Conditions,Clouds,dailyrainin,SoftwareType,DateUTC
2013-02-23 00:00:00,12.8,10.4,30.08,West,275,0.0,0.0,90,0.00,CLR,SKC,0.00,WeatherDisplay:10.37,2013-02-23 06:00:00,
2013-02-23 00:05:00,12.9,10.5,30.08,West,273,0.0,0.0,90,0.00,CLR,SKC,0.00,WeatherDisplay:10.37,2013-02-23 06:05:00,
2013-02-23 00:10:00,13.1,10.7,30.08,WSW,250,0.4,1.0,90,0.00,CLR,SKC,0.00,WeatherDisplay:10.37,2013-02-23 06:10:00,
2013-02-23 00:15:00,13.3,11.2,30.08,West,265,1.0,2.3,91,0.00,CLR,SKC,0.00,WeatherDisplay:10.37,2013-02-23 06:15:00,
2013-02-23 00:20:00,13.6,11.2,30.08,West,269,1.2,2.3,90,0.00,CLR,SKC,0.00,WeatherDisplay:10.37,2013-02-23 06:20:00,
2013-02-23 00:25:00,13.9,11.5,30.08,West,271,1.2,2.3,90,0.00,CLR,SKC,0.00,WeatherDisplay:10.37,2013-02-23 06:25:00,
2013-02-23 00:30:00,14.1,11.7,30.08,WSW,253,1.3,2.3,90,0.00,CLR,SKC,0.00,WeatherDisplay:10.37,2013-02-23 06:30:00,
2013-02-23 00:36:00,14.1,11.5,30.08,SW,224,0.5,1.1,89,0.00,CLR,SKC,0.00,WeatherDisplay:10.37,2013-02-23 06:36:00,
2013-02-23 00:41:00,13.9,11.3,30.08,WSW,240,0.0,0.0,89,0.00,CLR,SKC,0.00,WeatherDisplay:10.37,2013-02-23 06:41:00,
2013-02-23 00:46:00,13.7,11.1,30.07,WSW,238,0.0,0.0,89,0.00,CLR,SKC,0.00,WeatherDisplay:10.37,2013-02-23 06:46:00,
2013-02-23 00:51:00,13.3,10.4,30.08,SW,236,0.0,0.0,88,0.00,CLR,SKC,0.00,WeatherDisplay:10.37,2013-02-23 06:51:00,
2013-02-23 00:56:00,13.0,10.1,30.08,WSW,237,0.0,0.0,88,0.00,CLR,SKC,0.00,WeatherDisplay:10.37,2013-02-23 06:56:00,
2013-02-23 01:01:00,12.7,10.1,30.08,SW,236,0.0,0.0,89,0.00,CLR,SKC,0.00,WeatherDisplay:10.37,2013-02-23 07:01:00,
2013-02-23 01:06:00,12.3,9.7,30.08,SW,236,0.0,0.0,89,0.00,CLR,SKC,0.00,WeatherDisplay:10.37,2013-02-23 07:06:00,
2013-02-23 01:11:00,12.0,9.4,30.08,SW,236,0.0,0.0,89,0.00,CLR,SKC,0.00,WeatherDisplay:10.37,2013-02-23 07:11:00,
2013-02-23 01:16:00,11.9,9.5,30.08,SW,236,0.0,0.0,90,0.00,CLR,SKC,0.00,WeatherDisplay:10.37,2013-02-23 07:16:00,
2013-02-23 01:21:00,12.0,9.6,30.08,SW,224,0.0,0.0,90,0.00,CLR,SKC,0.00,WeatherDisplay:10.37,2013-02-23 07:21:00,
2013-02-23 01:26:00,12.0,9.6,30.08,SW,224,0.0,0.0,90,0.00,CLR,SKC,0.00,WeatherDisplay:10.37,2013-02-23 07:26:00,
2013-02-23 01:31:00,12.0,9.6,30.07,SW,229,0.0,0.0,90,0.00,CLR,SKC,0.00,WeatherDisplay:10.37,2013-02-23 07:31:00,
2013-02-23 01:36:00,11.9,9.5,30.07,SW,229,0.0,0.0,90,0.00,CLR,SKC,0.00,WeatherDisplay:10.37,2013-02-23 07:36:00,
2013-02-23 01:41:00,11.9,9.5,30.07,SW,217,0.0,0.0,90,0.00,CLR,SKC,0.00,WeatherDisplay:10.37,2013-02-23 07:41:00,
2013-02-23 01:46:00,11.9,9.5,30.07,SW,222,0.0,0.0,90,0.00,CLR,SKC,0.00,WeatherDisplay:10.37,2013-02-23 07:46:00,
2013-02-23 01:51:00,12.0,9.9,30.07,SW,226,0.0,0.0,91,0.00,CLR,SKC,0.00,WeatherDisplay:10.37,2013-02-23 07:51:00,
2013-02-23 01:56:00,12.0,9.6,30.07,SSW,204,1.4,2.3,90,0.00,CLR,SKC,0.00,WeatherDisplay:10.37,2013-02-23 07:56:00,
2013-02-23 02:01:00,11.9,9.5,30.07,SSW,201,1.2,2.3,90,0.00,CLR,SKC,0.00,WeatherDisplay:10.37,2013-02-23 08:01:00,
2013-02-23 02:06:00,11.9,9.5,30.07,SW,233,1.7,2.3,90,0.00,CLR,SKC,0.00,WeatherDisplay:10.37,2013-02-23 08:06:00,
2013-02-23 02:11:00,12.0,9.6,30.07,SW,221,1.5,2.3,90,0.00,CLR,SKC,0.00,WeatherDisplay:10.37,2013-02-23 08:11:00,
2013-02-23 02:16:00,11.9,9.5,30.07,SSW,212,0.0,0.0,90,0.00,CLR,SKC,0.00,WeatherDisplay:10.37,2013-02-23 08:16:00,
2013-02-23 02:21:00,11.8,9.4,30.07,SSW,201,0.0,1.1,90,0.00,CLR,SKC,0.00,WeatherDisplay:10.37,2013-02-23 08:21:00,
2013-02-23 02:26:00,11.6,9.2,30.07,SSW,204,0.8,1.1,90,0.00,CLR,SKC,0.00,WeatherDisplay:10.37,2013-02-23 08:26:00,
2013-02-23 02:31:00,11.4,9.0,30.07,SSE,159,0.2,1.1,90,0.00,CLR,SKC,0.00,WeatherDisplay:10.37,2013-02-23 08:31:00,
2013-02-23 02:36:00,11.3,8.9,30.07,SSE,160,0.0,0.0,90,0.00,CLR,SKC,0.00,WeatherDisplay:10.37,2013-02-23 08:36:00,
2013-02-23 02:41:00,11.2,8.8,30.07,SW,222,0.0,0.0,90,0.00,CLR,SKC,0.00,WeatherDisplay:10.37,2013-02-23 08:41:00,
2013-02-23 02:46:00,11.2,8.8,30.07,SSW,207,0.0,0.0,90,0.00,CLR,SKC,0.00,WeatherDisplay:10.37,2013-02-23 08:46:00,
2013-02-23 02:51:00,11.1,8.7,30.06,South,191,0.0,1.1,90,0.00,CLR,SKC,0.00,WeatherDisplay:10.37,2013-02-23 08:51:00,
2013-02-23 02:56:00,10.9,8.5,30.06,SSW,200,0.0,0.0,90,0.00,CLR,SKC,0.00,WeatherDisplay:10.37,2013-02-23 08:56:00,
2013-02-23 03:01:00,10.7,8.3,30.06,South,177,0.7,1.1,90,0.00,CLR,SKC,0.00,WeatherDisplay:10.37,2013-02-23 09:01:00,
2013-02-23 03:06:00,10.7,8.3,30.06,SSW,204,0.0,0.0,90,0.00,CLR,SKC,0.00,WeatherDisplay:10.37,2013-02-23 09:06:00,
2013-02-23 03:11:00,10.6,8.2,30.06,SSW,207,0.0,0.0,90,0.00,CLR,SKC,0.00,WeatherDisplay:10.37,2013-02-23 09:11:00,
2013-02-23 03:16:00,10.6,8.5,30.06,SSW,207,0.0,0.0,91,0.00,CLR,SKC,0.00,WeatherDisplay:10.37,2013-02-23 09:16:00,
2013-02-23 03:21:00,10.6,8.5,30.06,SSW,211,0.0,0.0,91,0.00,CLR,SKC,0.00,WeatherDisplay:10.37,2013-02-23 09:21:00,
2013-02-23 03:26:00,10.5,8.4,30.05,SE,136,0.0,0.0,91,0.00,CLR,SKC,0.00,WeatherDisplay:10.37,2013-02-23 09:26:00,
2013-02-23 03:31:00,10.4,8.3,30.05,SSW,193,0.0,0.0,91,0.00,CLR,SKC,0.00,WeatherDisplay:10.37,2013-02-23 09:31:00,
2013-02-23 03:36:00,10.2,7.9,30.05,SW,218,0.0,0.0,90,0.00,CLR,SKC,0.00,WeatherDisplay:10.37,2013-02-23 09:36:00,
2013-02-23 03:41:00,10.2,8.1,30.05,SSW,201,0.0,0.0,91,0.00,CLR,SKC,0.00,WeatherDisplay:10.37,2013-02-23 09:41:00,
2013-02-23 03:46:00,10.2,8.1,30.05,SSW,202,0.0,0.0,91,0.00,CLR,SKC,0.00,WeatherDisplay:10.37,2013-02-23 09:46:00,
2013-02-23 03:51:00,10.1,8.0,30.05,SSW,201,0.0,0.0,91,0.00,CLR,SKC,0.00,WeatherDisplay:10.37,2013-02-23 09:51:00,
2013-02-23 03:56:00,10.2,8.1,30.05,SW,219,0.0,0.0,91,0.00,CLR,SKC,0.00,WeatherDisplay:10.37,2013-02-23 09:56:00,
2013-02-23 04:01:00,10.1,8.0,30.05,SSW,197,0.0,0.0,91,0.00,CLR,SKC,0.00,WeatherDisplay:10.37,2013-02-23 10:01:00,
2013-02-23 04:06:00,9.9,7.8,30.05,SSW,204,0.0,0.0,91,0.00,CLR,SKC,0.00,WeatherDisplay:10.37,2013-02-23 10:06:00,
2013-02-23 04:11:00,9.9,7.8,30.04,SSW,207,0.4,1.1,91,0.00,CLR,SKC,0.00,WeatherDisplay:10.37,2013-02-23 10:11:00,
2013-02-23 04:16:00,10.0,7.9,30.04,SSW,210,0.2,1.1,91,0.00,CLR,SKC,0.00,WeatherDisplay:10.37,2013-02-23 10:16:00,
2013-02-23 04:21:00,10.0,7.9,30.04,SSW,200,0.1,1.1,91,0.00,CLR,SKC,0.00,WeatherDisplay:10.37,2013-02-23 10:21:00,
2013-02-23 04:26:00,10.0,7.9,30.04,SW,232,0.9,2.3,91,0.00,CLR,SKC,0.00,WeatherDisplay:10.37,2013-02-23 10:26:00,
2013-02-23 04:31:00,10.2,8.3,30.04,SW,235,0.7,2.0,92,0.00,CLR,SKC,0.00,WeatherDisplay:10.37,2013-02-23 10:31:00,
2013-02-23 04:36:00,10.2,8.1,30.04,SSW,200,0.0,0.0,91,0.00,CLR,SKC,0.00,WeatherDisplay:10.37,2013-02-23 10:36:00,
2013-02-23 04:41:00,10.2,8.1,30.04,SE,134,0.0,1.1,91,0.00,CLR,SKC,0.00,WeatherDisplay:10.37,2013-02-23 10:41:00,
2013-02-23 04:46:00,9.9,7.8,30.04,SSE,148,0.0,0.0,91,0.00,CLR,SKC,0.00,WeatherDisplay:10.37,2013-02-23 10:46:00,
2013-02-23 04:51:00,9.8,7.7,30.03,SSW,211,0.0,0.0,91,0.00,CLR,SKC,0.00,WeatherDisplay:10.37,2013-02-23 10:51:00,
2013-02-23 04:56:00,9.7,7.6,30.03,SSW,211,0.0,0.0,91,0.00,CLR,SKC,0.00,WeatherDisplay:10.37,2013-02-23 10:56:00,
2013-02-23 05:01:00,9.6,7.5,30.03,SSW,211,0.0,0.0,91,0.00,CLR,SKC,0.00,WeatherDisplay:10.37,2013-02-23 11:01:00,
2013-02-23 05:06:00,9.6,7.5,30.03,South,188,0.0,0.0,91,0.00,CLR,SKC,0.00,WeatherDisplay:10.37,2013-02-23 11:06:00,
2013-02-23 05:11:00,9.7,7.8,30.03,SSW,200,0.0,0.0,92,0.00,CLR,SKC,0.00,WeatherDisplay:10.37,2013-02-23 11:11:00,
2013-02-23 05:16:00,9.8,7.9,30.03,SSW,200,0.0,0.0,92,0.00,CLR,SKC,0.00,WeatherDisplay:10.37,2013-02-23 11:16:00,
2013-02-23 05:21:00,9.6,7.5,30.03,South,184,0.0,0.0,91,0.00,CLR,SKC,0.00,WeatherDisplay:10.37,2013-02-23 11:21:00,
2013-02-23 05:26:00,9.5,7.4,30.03,South,184,0.0,0.0,91,0.00,CLR,SKC,0.00,WeatherDisplay:10.37,2013-02-23 11:26:00,
2013-02-23 05:31:00,9.3,7.2,30.03,SSE,149,0.0,0.0,91,0.00,CLR,SKC,0.00,WeatherDisplay:10.37,2013-02-23 11:31:00,
2013-02-23 05:36:00,9.2,7.1,30.03,SSE,166,0.8,1.1,91,0.00,CLR,SKC,0.00,WeatherDisplay:10.37,2013-02-23 11:36:00,
2013-02-23 05:41:00,9.3,7.2,30.03,SSE,162,1.1,1.1,91,0.00,CLR,SKC,0.00,WeatherDisplay:10.37,2013-02-23 11:41:00,
2013-02-23 05:46:00,9.4,7.3,30.03,South,169,1.2,2.3,91,0.00,CLR,SKC,0.00,WeatherDisplay:10.37,2013-02-23 11:46:00,
2013-02-23 05:51:00,9.5,7.4,30.04,South,173,1.0,2.3,91,0.00,CLR,SKC,0.00,WeatherDisplay:10.37,2013-02-23 11:51:00,
2013-02-23 05:56:00,9.5,7.4,30.04,SSE,154,0.2,2.3,91,0.00,CLR,SKC,0.00,WeatherDisplay:10.37,2013-02-23 11:56:00,
2013-02-23 06:01:00,9.5,7.4,30.03,SSE,148,0.1,1.1,91,0.00,CLR,SKC,0.00,WeatherDisplay:10.37,2013-02-23 12:01:00,
2013-02-23 06:06:00,9.5,7.4,30.03,SSE,153,0.3,2.3,91,0.00,CLR,SKC,0.00,WeatherDisplay:10.37,2013-02-23 12:06:00,
2013-02-23 06:11:00,9.4,7.3,30.03,SSE,153,0.3,1.1,91,0.00,CLR,SKC,0.00,WeatherDisplay:10.37,2013-02-23 12:11:00,
2013-02-23 06:16:00,9.3,7.2,30.03,South,186,1.3,2.3,91,0.00,CLR,SKC,0.00,WeatherDisplay:10.37,2013-02-23 12:16:00,
2013-02-23 06:21:00,9.2,7.1,30.03,South,177,1.3,2.3,91,0.00,CLR,SKC,0.00,WeatherDisplay:10.37,2013-02-23 12:21:00,
2013-02-23 06:26:00,9.3,7.2,30.03,SSE,159,1.0,2.3,91,0.00,CLR,SKC,0.00,WeatherDisplay:10.37,2013-02-23 12:26:00,
2013-02-23 06:31:00,9.3,7.2,30.03,SE,136,0.6,1.1,91,0.00,CLR,SKC,0.00,WeatherDisplay:10.37,2013-02-23 12:31:00,
2013-02-23 06:36:00,9.3,7.2,30.03,SE,146,0.0,0.0,91,0.00,CLR,SKC,0.00,WeatherDisplay:10.37,2013-02-23 12:36:00,
2013-02-23 06:41:00,9.2,7.1,30.03,SSE,162,0.4,1.1,91,0.00,CLR,SKC,0.00,WeatherDisplay:10.37,2013-02-23 12:41:00,
2013-02-23 06:47:00,9.2,7.1,30.03,SSE,148,0.0,1.1,91,0.00,CLR,SKC,0.00,WeatherDisplay:10.37,2013-02-23 12:47:00,
2013-02-23 06:52:00,9.1,7.0,30.03,SSE,155,0.0,0.0,91,0.00,CLR,SKC,0.00,WeatherDisplay:10.37,2013-02-23 12:52:00,
2013-02-23 06:57:00,9.0,6.9,30.03,SSE,165,0.5,2.3,91,0.00,CLR,SKC,0.00,WeatherDisplay:10.37,2013-02-23 12:57:00,
2013-02-23 07:02:00,8.9,6.8,30.02,SSW,197,0.6,1.1,91,0.00,CLR,SKC,0.00,WeatherDisplay:10.37,2013-02-23 13:02:00,
2013-02-23 07:07:00,8.9,6.8,30.02,SSE,163,0.0,0.0,91,0.00,CLR,SKC,0.00,WeatherDisplay:10.37,2013-02-23 13:07:00,
2013-02-23 07:12:00,8.9,6.8,30.02,SSE,159,0.6,1.1,91,0.00,CLR,SKC,0.00,WeatherDisplay:10.37,2013-02-23 13:12:00,
2013-02-23 07:17:00,9.1,7.0,30.02,SSE,153,0.4,1.1,91,0.00,CLR,SKC,0.00,WeatherDisplay:10.37,2013-02-23 13:17:00,
2013-02-23 07:22:00,9.5,7.4,30.02,SSE,150,0.4,1.1,91,0.00,CLR,SKC,0.00,WeatherDisplay:10.37,2013-02-23 13:22:00,
2013-02-23 07:27:00,9.9,7.8,30.02,SSE,165,0.1,1.1,91,0.00,CLR,SKC,0.00,WeatherDisplay:10.37,2013-02-23 13:27:00,
2013-02-23 07:32:00,10.5,8.4,30.02,SSE,162,0.0,0.0,91,0.00,CLR,SKC,0.00,WeatherDisplay:10.37,2013-02-23 13:32:00,
2013-02-23 07:37:00,11.0,8.9,30.02,SSE,150,0.0,0.0,91,0.00,CLR,SKC,0.00,WeatherDisplay:10.37,2013-02-23 13:37:00,
2013-02-23 07:42:00,11.6,9.5,30.01,SSE,153,0.0,0.0,91,0.00,CLR,SKC,0.00,WeatherDisplay:10.37,2013-02-23 13:42:00,
2013-02-23 07:47:00,12.0,9.9,30.01,ESE,117,0.0,0.0,91,0.00,CLR,SKC,0.00,WeatherDisplay:10.37,2013-02-23 13:47:00,
2013-02-23 07:52:00,12.1,9.7,30.01,ESE,105,0.0,0.0,90,0.00,CLR,SKC,0.00,WeatherDisplay:10.37,2013-02-23 13:52:00,
2013-02-23 07:57:00,12.2,9.8,30.01,ESE,108,0.0,0.0,90,0.00,CLR,SKC,0.00,WeatherDisplay:10.37,2013-02-23 13:57:00,
2013-02-23 08:02:00,12.5,9.9,30.01,ESE,111,0.0,0.0,89,0.00,CLR,SKC,0.00,WeatherDisplay:10.37,2013-02-23 14:02:00,
2013-02-23 08:07:00,12.9,10.3,30.01,ESE,113,0.0,0.0,89,0.00,CLR,SKC,0.00,WeatherDisplay:10.37,2013-02-23 14:07:00,
2013-02-23 08:12:00,13.8,11.4,30.01,ESE,113,0.0,0.0,90,0.00,CLR,SKC,0.00,WeatherDisplay:10.37,2013-02-23 14:12:00,
2013-02-23 08:17:00,14.5,11.9,30.01,SE,134,0.1,1.1,89,0.00,CLR,SKC,0.00,WeatherDisplay:10.37,2013-02-23 14:17:00,
2013-02-23 08:22:00,15.2,12.3,30.01,SSE,150,1.5,2.3,88,0.00,CLR,SKC,0.00,WeatherDisplay:10.37,2013-02-23 14:22:00,
2013-02-23 08:27:00,15.6,12.7,30.01,SSE,152,1.4,2.3,88,0.00,CLR,SKC,0.00,WeatherDisplay:10.37,2013-02-23 14:27:00,
2013-02-23 08:32:00,15.8,12.6,30.01,South,174,1.5,3.5,87,0.00,CLR,SKC,0.00,WeatherDisplay:10.37,2013-02-23 14:32:00,
2013-02-23 08:37:00,16.1,12.7,30.00,SSE,160,1.4,2.3,86,0.00,CLR,SKC,0.00,WeatherDisplay:10.37,2013-02-23 14:37:00,
2013-02-23 08:42:00,16.7,13.5,30.01,SSE,148,0.9,2.3,87,0.00,CLR,SKC,0.00,WeatherDisplay:10.37,2013-02-23 14:42:00,
2013-02-23 08:47:00,17.1,13.6,30.00,South,176,1.6,3.5,86,0.00,CLR,SKC,0.00,WeatherDisplay:10.37,2013-02-23 14:47:00,
2013-02-23 08:52:00,17.4,13.7,30.00,SSE,165,0.9,1.1,85,0.00,CLR,SKC,0.00,WeatherDisplay:10.37,2013-02-23 14:52:00,
2013-02-23 08:57:00,17.9,13.9,30.00,SSW,194,1.3,2.3,84,0.00,CLR,SKC,0.00,WeatherDisplay:10.37,2013-02-23 14:57:00,
2013-02-23 09:02:00,18.1,13.8,30.00,SSW,207,4.2,4.6,83,0.00,CLR,SKC,0.00,WeatherDisplay:10.37,2013-02-23 15:02:00,
2013-02-23 09:07:00,18.3,14.0,30.01,SE,127,4.4,6.9,83,0.00,CLR,SKC,0.00,WeatherDisplay:10.37,2013-02-23 15:07:00,
2013-02-23 09:12:00,18.2,13.6,30.00,SSE,147,6.8,9.2,82,0.00,CLR,SKC,0.00,WeatherDisplay:10.37,2013-02-23 15:12:00,
2013-02-23 09:17:00,18.3,13.7,30.00,SE,132,3.8,5.8,82,0.00,CLR,SKC,0.00,WeatherDisplay:10.37,2013-02-23 15:17:00,
2013-02-23 09:22:00,18.6,14.0,30.00,South,187,4.5,6.9,82,0.00,-SN,SKC,0.00,WeatherDisplay:10.37,2013-02-23 15:22:00,
2013-02-23 09:27:00,18.9,14.0,30.00,SW,214,3.2,4.6,81,0.00,-SN,SKC,0.00,WeatherDisplay:10.37,2013-02-23 15:27:00,
2013-02-23 09:32:00,19.2,14.3,30.00,SW,214,2.5,4.0,81,0.00,-SN,SKC,0.00,WeatherDisplay:10.37,2013-02-23 15:32:00,
2013-02-23 09:37:00,19.4,14.2,30.00,SE,140,2.9,7.0,80,0.00,-SN,SKC,0.00,WeatherDisplay:10.37,2013-02-23 15:37:00,
2013-02-23 09:42:00,19.5,14.0,30.00,SSE,147,4.6,6.0,79,0.00,CLR,SKC,0.00,WeatherDisplay:10.37,2013-02-23 15:42:00,
2013-02-23 09:47:00,19.8,14.3,30.00,South,173,3.2,5.8,79,0.00,CLR,SKC,0.00,WeatherDisplay:10.37,2013-02-23 15:47:00,
2013-02-23 09:52:00,20.4,14.9,30.00,SE,142,3.0,4.6,79,0.00,CLR,SKC,0.00,WeatherDisplay:10.37,2013-02-23 15:52:00,
2013-02-23 09:57:00,20.9,15.1,30.00,SSE,150,4.6,5.8,78,0.00,CLR,SKC,0.00,WeatherDisplay:10.37,2013-02-23 15:57:00,
2013-02-23 10:02:00,21.6,15.8,30.00,South,190,4.5,6.9,78,0.00,CLR,SKC,0.00,WeatherDisplay:10.37,2013-02-23 16:02:00,
2013-02-23 10:07:00,21.7,15.6,30.00,SSW,195,3.9,6.9,77,0.00,CLR,SKC,0.00,WeatherDisplay:10.37,2013-02-23 16:07:00,
2013-02-23 10:12:00,21.9,15.5,30.00,SSW,201,5.0,6.0,76,0.00,CLR,SKC,0.00,WeatherDisplay:10.37,2013-02-23 16:12:00,
2013-02-23 10:17:00,22.2,16.1,30.00,SW,221,3.3,7.0,77,0.00,CLR,SKC,0.00,WeatherDisplay:10.37,2013-02-23 16:17:00,
2013-02-23 10:22:00,22.3,15.9,29.99,SW,225,4.0,5.8,76,0.00,CLR,SKC,0.00,WeatherDisplay:10.37,2013-02-23 16:22:00,
2013-02-23 10:27:00,22.3,15.6,29.99,SSW,198,6.3,9.2,75,0.00,CLR,SKC,0.00,WeatherDisplay:10.37,2013-02-23 16:27:00,
2013-02-23 10:32:00,22.2,15.8,29.99,SW,215,5.2,8.1,76,0.00,CLR,SKC,0.00,WeatherDisplay:10.37,2013-02-23 16:32:00,
2013-02-23 10:37:00,22.7,16.3,29.99,SSW,208,3.9,6.9,76,0.00,CLR,SKC,0.00,WeatherDisplay:10.37,2013-02-23 16:37:00,
2013-02-23 10:42:00,23.0,16.6,29.99,South,179,5.0,6.9,76,0.00,CLR,SKC,0.00,WeatherDisplay:10.37,2013-02-23 16:42:00,
2013-02-23 10:47:00,23.2,16.8,29.99,SSE,158,4.4,8.0,76,0.00,CLR,SKC,0.00,WeatherDisplay:10.37,2013-02-23 16:47:00,
2013-02-23 10:52:00,23.5,16.7,29.99,SSE,165,5.9,9.2,75,0.00,CLR,SKC,0.00,WeatherDisplay:10.37,2013-02-23 16:52:00,
2013-02-23 10:57:00,23.8,17.0,29.99,SSW,194,5.1,8.1,75,0.00,CLR,SKC,0.00,WeatherDisplay:10.37,2013-02-23 16:57:00,
2013-02-23 11:02:00,23.9,17.1,29.99,SSW,201,4.7,6.9,75,0.00,CLR,SKC,0.00,WeatherDisplay:10.37,2013-02-23 17:02:00,
2013-02-23 11:07:00,24.3,17.5,29.99,SSW,193,4.1,6.9,75,0.00,CLR,SKC,0.00,WeatherDisplay:10.37,2013-02-23 17:07:00,
2013-02-23 11:12:00,24.9,18.1,29.98,SSW,198,2.6,6.9,75,0.00,CLR,SKC,0.00,WeatherDisplay:10.37,2013-02-23 17:12:00,
2013-02-23 11:17:00,25.6,18.8,29.98,SSW,198,5.1,5.1,75,0.00,CLR,SKC,0.00,WeatherDisplay:10.37,2013-02-23 17:17:00,
2013-02-23 11:22:00,25.6,18.1,29.98,SW,222,6.2,8.1,73,0.00,CLR,SKC,0.00,WeatherDisplay:10.37,2013-02-23 17:22:00,
2013-02-23 11:27:00,25.7,18.2,29.98,SSW,208,4.8,8.1,73,0.00,CLR,SKC,0.00,WeatherDisplay:10.37,2013-02-23 17:27:00,
2013-02-23 11:32:00,26.3,19.5,29.98,WSW,243,4.1,4.1,75,0.00,CLR,SKC,0.00,WeatherDisplay:10.37,2013-02-23 17:32:00,
2013-02-23 11:38:00,26.7,18.9,29.98,SSW,201,4.5,6.9,72,0.00,CLR,SKC,0.00,WeatherDisplay:10.37,2013-02-23 17:38:00,
2013-02-23 11:43:00,26.8,19.0,29.98,SSW,205,7.7,11.5,72,0.00,CLR,SKC,0.00,WeatherDisplay:10.37,2013-02-23 17:43:00,
2013-02-23 11:48:00,26.9,19.1,29.98,South,181,5.9,9.2,72,0.00,CLR,SKC,0.00,WeatherDisplay:10.37,2013-02-23 17:48:00,
2013-02-23 11:53:00,27.1,19.3,29.98,SE,143,4.9,6.9,72,0.00,CLR,SKC,0.00,WeatherDisplay:10.37,2013-02-23 17:53:00,
2013-02-23 11:58:00,27.7,19.8,29.98,SSE,164,4.2,5.8,72,0.00,CLR,SKC,0.00,WeatherDisplay:10.37,2013-02-23 17:58:00,
2013-02-23 12:03:00,28.0,19.5,29.98,SSE,164,8.3,11.5,70,0.00,CLR,SKC,0.00,WeatherDisplay:10.37,2013-02-23 18:03:00,
2013-02-23 12:08:00,27.8,19.6,29.98,South,188,5.2,6.9,71,0.00,CLR,SKC,0.00,WeatherDisplay:10.37,2013-02-23 18:08:00,
2013-02-23 12:13:00,28.2,20.3,29.98,SSW,207,5.8,9.2,72,0.00,CLR,SKC,0.00,WeatherDisplay:10.37,2013-02-23 18:13:00,
2013-02-23 12:18:00,28.5,20.3,29.97,South,187,6.7,11.5,71,0.00,CLR,SKC,0.00,WeatherDisplay:10.37,2013-02-23 18:18:00,
2013-02-23 12:23:00,28.9,20.7,29.97,SW,219,6.2,8.1,71,0.00,CLR,SKC,0.00,WeatherDisplay:10.37,2013-02-23 18:23:00,
2013-02-23 12:28:00,29.1,20.9,29.97,South,186,7.8,11.5,71,0.00,CLR,SKC,0.00,WeatherDisplay:10.37,2013-02-23 18:28:00,
2013-02-23 12:33:00,29.4,21.2,29.97,South,174,7.5,10.4,71,0.00,CLR,SKC,0.00,WeatherDisplay:10.37,2013-02-23 18:33:00,
2013-02-23 12:38:00,29.5,21.6,29.96,SSE,155,4.8,8.1,72,0.00,CLR,SKC,0.00,WeatherDisplay:10.37,2013-02-23 18:38:00,
2013-02-23 12:43:00,30.1,22.2,29.96,SSW,194,3.9,5.8,72,0.00,CLR,SKC,0.00,WeatherDisplay:10.37,2013-02-23 18:43:00,
2013-02-23 12:48:00,30.7,22.4,29.96,SSW,193,6.0,11.5,71,0.00,CLR,SKC,0.00,WeatherDisplay:10.37,2013-02-23 18:48:00,
2013-02-23 12:53:00,31.0,23.0,29.96,SW,231,7.0,9.2,72,0.00,CLR,SKC,0.00,WeatherDisplay:10.37,2013-02-23 18:53:00,
2013-02-23 12:58:00,31.5,23.5,29.96,SSE,155,4.2,6.0,72,0.00,CLR,SKC,0.00,WeatherDisplay:10.37,2013-02-23 18:58:00,
2013-02-23 13:03:00,31.8,23.1,29.96,South,190,5.1,5.8,70,0.00,CLR,SKC,0.00,WeatherDisplay:10.37,2013-02-23 19:03:00,
2013-02-23 13:08:00,32.1,23.4,29.95,South,170,5.7,10.4,70,0.00,CLR,SKC,0.00,WeatherDisplay:10.37,2013-02-23 19:08:00,
2013-02-23 13:13:00,32.6,24.2,29.95,SSE,156,6.2,9.2,71,0.00,CLR,SKC,0.00,WeatherDisplay:10.37,2013-02-23 19:13:00,
2013-02-23 13:18:00,32.7,24.0,29.95,SSE,165,7.5,10.4,70,0.00,CLR,SKC,0.00,WeatherDisplay:10.37,2013-02-23 19:18:00,
2013-02-23 13:23:00,32.8,23.7,29.95,SSW,195,7.1,11.5,69,0.00,CLR,SKC,0.00,WeatherDisplay:10.37,2013-02-23 19:23:00,
2013-02-23 13:28:00,33.1,24.7,29.94,SSW,208,7.1,9.2,71,0.00,CLR,SKC,0.00,WeatherDisplay:10.37,2013-02-23 19:28:00,
2013-02-23 13:33:00,33.4,24.3,29.95,SSE,153,5.8,8.1,69,0.00,CLR,SKC,0.00,WeatherDisplay:10.37,2013-02-23 19:33:00,
2013-02-23 13:38:00,33.7,24.6,29.94,SE,136,7.0,11.5,69,0.00,CLR,SKC,0.00,WeatherDisplay:10.37,2013-02-23 19:38:00,
2013-02-23 13:43:00,33.8,24.4,29.94,SSW,205,8.7,11.5,68,0.00,CLR,SKC,0.00,WeatherDisplay:10.37,2013-02-23 19:43:00,
2013-02-23 13:48:00,33.8,24.7,29.94,ESE,114,2.5,5.8,69,0.00,CLR,SKC,0.00,WeatherDisplay:10.37,2013-02-23 19:48:00,
2013-02-23 13:53:00,34.0,24.5,29.94,SSE,153,8.9,12.7,68,0.00,CLR,SKC,0.00,WeatherDisplay:10.37,2013-02-23 19:53:00,
2013-02-23 13:58:00,34.1,25.0,29.94,SSW,212,7.6,10.4,69,0.00,CLR,SKC,0.00,WeatherDisplay:10.37,2013-02-23 19:58:00,
2013-02-23 14:03:00,34.5,25.4,29.94,SE,139,5.8,8.1,69,0.00,CLR,SKC,0.00,WeatherDisplay:10.37,2013-02-23 20:03:00,
2013-02-23 14:08:00,34.7,25.2,29.94,SSE,158,5.3,9.2,68,0.00,CLR,SKC,0.00,WeatherDisplay:10.37,2013-02-23 20:08:00,
2013-02-23 14:13:00,34.9,25.4,29.93,SSE,159,6.5,10.4,68,0.00,CLR,SKC,0.00,WeatherDisplay:10.37,2013-02-23 20:13:00,
2013-02-23 14:18:00,35.2,25.7,29.93,SSW,211,5.7,8.1,68,0.00,CLR,SKC,0.00,WeatherDisplay:10.37,2013-02-23 20:18:00,
2013-02-23 14:23:00,35.3,25.8,29.93,SW,221,5.1,6.9,68,0.00,CLR,SKC,0.00,WeatherDisplay:10.37,2013-02-23 20:23:00,
2013-02-23 14:28:00,35.8,25.9,29.92,WSW,247,5.6,9.2,67,0.00,CLR,SKC,0.00,WeatherDisplay:10.37,2013-02-23 20:28:00,
2013-02-23 14:33:00,36.0,26.1,29.92,WSW,237,3.9,5.8,67,0.00,CLR,SKC,0.00,WeatherDisplay:10.37,2013-02-23 20:33:00,
2013-02-23 14:38:00,36.1,25.5,29.92,SSE,153,7.0,9.2,65,0.00,CLR,SKC,0.00,WeatherDisplay:10.37,2013-02-23 20:38:00,
2013-02-23 14:43:00,36.1,25.8,29.92,SSE,166,5.9,8.1,66,0.02,RA,SKC,0.02,WeatherDisplay:10.37,2013-02-23 20:43:00,
2013-02-23 14:48:00,36.3,26.0,29.92,SSW,200,3.3,8.0,66,0.02,RA,SKC,0.02,WeatherDisplay:10.37,2013-02-23 20:48:00,
2013-02-23 14:53:00,36.4,26.1,29.92,SSW,210,3.7,4.6,66,0.02,CLR,SKC,0.02,WeatherDisplay:10.37,2013-02-23 20:53:00,
2013-02-23 14:58:00,36.7,26.4,29.92,SSW,210,2.4,4.6,66,0.02,CLR,SKC,0.02,WeatherDisplay:10.37,2013-02-23 20:58:00,
2013-02-23 15:03:00,37.2,26.5,29.92,South,177,4.5,4.5,65,0.02,CLR,SKC,0.02,WeatherDisplay:10.37,2013-02-23 21:03:00,
2013-02-23 15:08:00,36.8,25.8,29.92,SSW,197,6.8,8.0,64,0.02,CLR,SKC,0.02,WeatherDisplay:10.37,2013-02-23 21:08:00,
2013-02-23 15:13:00,36.5,25.8,29.92,SSW,199,5.3,11.5,65,0.02,CLR,SKC,0.02,WeatherDisplay:10.37,2013-02-23 21:13:00,
2013-02-23 15:18:00,36.5,25.8,29.91,SSW,193,5.2,11.5,65,0.02,CLR,SKC,0.02,WeatherDisplay:10.37,2013-02-23 21:18:00,
2013-02-23 15:23:00,36.5,25.8,29.92,SSW,193,7.4,11.5,65,0.02,CLR,SKC,0.02,WeatherDisplay:10.37,2013-02-23 21:23:00,
2013-02-23 15:28:00,36.7,26.4,29.91,SSW,193,4.9,9.2,66,0.02,CLR,SKC,0.02,WeatherDisplay:10.37,2013-02-23 21:28:00,
2013-02-23 15:33:00,36.7,26.0,29.91,South,186,7.3,10.4,65,0.02,CLR,SKC,0.02,WeatherDisplay:10.37,2013-02-23 21:33:00,
2013-02-23 15:38:00,36.9,26.6,29.91,South,181,2.6,5.8,66,0.02,CLR,SKC,0.02,WeatherDisplay:10.37,2013-02-23 21:38:00,
2013-02-23 15:43:00,37.0,26.3,29.91,SSE,156,6.7,10.4,65,0.00,CLR,SKC,0.02,WeatherDisplay:10.37,2013-02-23 21:43:00,
2013-02-23 15:48:00,37.1,26.4,29.91,SW,226,6.7,8.1,65,0.00,CLR,SKC,0.02,WeatherDisplay:10.37,2013-02-23 21:48:00,
2013-02-23 15:53:00,37.1,26.4,29.91,SSW,193,6.5,9.2,65,0.00,CLR,SKC,0.02,WeatherDisplay:10.37,2013-02-23 21:53:00,
2013-02-23 15:58:00,37.2,26.5,29.91,SSE,167,6.0,10.4,65,0.00,CLR,SKC,0.02,WeatherDisplay:10.37,2013-02-23 21:58:00,
2013-02-23 16:03:00,37.4,26.7,29.91,SSE,158,4.9,7.0,65,0.00,CLR,SKC,0.02,WeatherDisplay:10.37,2013-02-23 22:03:00,
2013-02-23 16:08:00,37.5,26.8,29.91,SSE,156,8.5,11.5,65,0.00,CLR,SKC,0.02,WeatherDisplay:10.37,2013-02-23 22:08:00,
2013-02-23 16:13:00,37.4,27.1,29.90,SSE,153,5.7,6.9,66,0.00,CLR,SKC,0.02,WeatherDisplay:10.37,2013-02-23 22:13:00,
2013-02-23 16:18:00,37.5,27.2,29.91,South,174,3.6,6.9,66,0.00,CLR,SKC,0.02,WeatherDisplay:10.37,2013-02-23 22:18:00,
2013-02-23 16:23:00,37.7,27.0,29.91,SSW,201,6.5,11.5,65,0.00,CLR,SKC,0.02,WeatherDisplay:10.37,2013-02-23 22:23:00,
2013-02-23 16:28:00,37.4,27.1,29.91,SSW,205,5.9,9.2,66,0.00,CLR,SKC,0.02,WeatherDisplay:10.37,2013-02-23 22:28:00,
2013-02-23 16:33:00,37.4,27.4,29.91,SSW,212,4.2,6.9,67,0.00,CLR,SKC,0.02,WeatherDisplay:10.37,2013-02-23 22:33:00,
2013-02-23 16:38:00,37.1,26.8,29.91,SSW,197,6.7,12.7,66,0.00,CLR,SKC,0.02,WeatherDisplay:10.37,2013-02-23 22:38:00,
2013-02-23 16:43:00,37.0,27.1,29.90,South,176,5.4,8.1,67,0.00,CLR,SKC,0.02,WeatherDisplay:10.37,2013-02-23 22:43:00,
2013-02-23 16:48:00,36.9,27.3,29.90,South,187,7.6,10.4,68,0.00,CLR,SKC,0.02,WeatherDisplay:10.37,2013-02-23 22:48:00,
2013-02-23 16:53:00,36.9,27.3,29.90,South,181,5.6,10.4,68,0.00,CLR,SKC,0.02,WeatherDisplay:10.37,2013-02-23 22:53:00,
2013-02-23 16:58:00,36.9,27.3,29.90,South,174,4.3,6.9,68,0.00,CLR,SKC,0.02,WeatherDisplay:10.37,2013-02-23 22:58:00,
2013-02-23 17:03:00,36.9,27.3,29.90,SSE,164,4.8,6.9,68,0.00,CLR,SKC,0.02,WeatherDisplay:10.37,2013-02-23 23:03:00,
2013-02-23 17:09:00,37.0,27.4,29.90,South,183,7.9,11.5,68,0.00,CLR,SKC,0.02,WeatherDisplay:10.37,2013-02-23 23:09:00,
2013-02-23 17:14:00,36.8,27.6,29.90,South,177,6.9,11.5,69,0.00,CLR,SKC,0.02,WeatherDisplay:10.37,2013-02-23 23:14:00,
2013-02-23 17:19:00,36.6,27.4,29.90,SE,143,7.0,10.4,69,0.00,CLR,SKC,0.02,WeatherDisplay:10.37,2013-02-23 23:19:00,
2013-02-23 17:24:00,36.4,27.5,29.89,SE,139,7.8,13.8,70,0.00,CLR,SKC,0.02,WeatherDisplay:10.37,2013-02-23 23:24:00,
2013-02-23 17:29:00,36.3,27.4,29.89,South,190,4.2,5.8,70,0.00,CLR,SKC,0.02,WeatherDisplay:10.37,2013-02-23 23:29:00,
2013-02-23 17:34:00,36.2,27.7,29.89,SE,143,3.8,5.8,71,0.00,CLR,SKC,0.02,WeatherDisplay:10.37,2013-02-23 23:34:00,
2013-02-23 17:39:00,36.2,27.7,29.89,SSE,158,2.7,6.0,71,0.00,CLR,SKC,0.02,WeatherDisplay:10.37,2013-02-23 23:39:00,
2013-02-23 17:44:00,36.1,27.6,29.89,SSW,195,3.7,6.9,71,0.00,CLR,SKC,0.02,WeatherDisplay:10.37,2013-02-23 23:44:00,
2013-02-23 17:49:00,35.7,27.6,29.89,SSE,163,5.5,8.0,72,0.00,CLR,SKC,0.02,WeatherDisplay:10.37,2013-02-23 23:49:00,
2013-02-23 17:54:00,35.4,27.3,29.89,ESE,122,5.4,7.0,72,0.00,CLR,SKC,0.02,WeatherDisplay:10.37,2013-02-23 23:54:00,
2013-02-23 17:59:00,35.1,27.3,29.90,SE,138,5.5,7.0,73,0.00,CLR,SKC,0.02,WeatherDisplay:10.37,2013-02-23 23:59:00,
2013-02-23 18:04:00,34.8,27.4,29.90,SSE,158,4.3,5.8,74,0.00,CLR,SKC,0.02,WeatherDisplay:10.37,2013-02-24 00:04:00,
2013-02-23 18:09:00,34.5,27.1,29.90,SE,137,3.2,4.6,74,0.00,CLR,SKC,0.02,WeatherDisplay:10.37,2013-02-24 00:09:00,
2013-02-23 18:14:00,34.3,27.2,29.90,SSE,165,3.6,5.8,75,0.00,CLR,SKC,0.02,WeatherDisplay:10.37,2013-02-24 00:14:00,
2013-02-23 18:19:00,34.0,27.2,29.90,South,175,2.4,3.5,76,0.00,CLR,SKC,0.02,WeatherDisplay:10.37,2013-02-24 00:19:00,
2013-02-23 18:24:00,33.7,26.9,29.90,SE,138,2.9,3.5,76,0.00,CLR,SKC,0.02,WeatherDisplay:10.37,2013-02-24 00:24:00,
2013-02-23 18:29:00,33.5,27.1,29.90,SSE,160,2.9,4.6,77,0.00,CLR,SKC,0.02,WeatherDisplay:10.37,2013-02-24 00:29:00,
2013-02-23 18:34:00,33.4,27.0,29.91,SSE,167,4.5,6.0,77,0.00,CLR,SKC,0.02,WeatherDisplay:10.37,2013-02-24 00:34:00,
2013-02-23 18:39:00,33.2,26.8,29.91,SSE,156,4.3,5.8,77,0.00,CLR,SKC,0.02,WeatherDisplay:10.37,2013-02-24 00:39:00,
2013-02-23 18:44:00,33.1,27.0,29.91,SE,140,4.5,8.0,78,0.00,CLR,SKC,0.02,WeatherDisplay:10.37,2013-02-24 00:44:00,
2013-02-23 18:49:00,32.9,26.8,29.92,SSE,165,7.0,10.0,78,0.00,CLR,SKC,0.02,WeatherDisplay:10.37,2013-02-24 00:49:00,
2013-02-23 18:54:00,32.8,26.7,29.91,SSE,150,5.2,6.9,78,0.00,CLR,SKC,0.02,WeatherDisplay:10.37,2013-02-24 00:54:00,
2013-02-23 18:59:00,32.6,26.5,29.92,SSE,151,3.6,7.0,78,0.00,CLR,SKC,0.02,WeatherDisplay:10.37,2013-02-24 00:59:00,
2013-02-23 19:04:00,32.5,26.7,29.91,South,190,5.4,8.1,79,0.00,CLR,SKC,0.02,WeatherDisplay:10.37,2013-02-24 01:04:00,
2013-02-23 19:09:00,32.4,26.6,29.91,SSE,153,4.0,5.8,79,0.00,CLR,SKC,0.02,WeatherDisplay:10.37,2013-02-24 01:09:00,
2013-02-23 19:14:00,32.2,26.4,29.92,SSE,150,3.5,5.8,79,0.00,CLR,SKC,0.02,WeatherDisplay:10.37,2013-02-24 01:14:00,
2013-02-23 19:19:00,32.0,26.2,29.92,SSE,158,4.7,5.8,79,0.00,CLR,SKC,0.02,WeatherDisplay:10.37,2013-02-24 01:19:00,
2013-02-23 19:24:00,31.8,26.3,29.92,SE,141,4.2,8.1,80,0.00,CLR,SKC,0.02,WeatherDisplay:10.37,2013-02-24 01:24:00,
2013-02-23 19:29:00,31.7,26.2,29.92,SSE,153,4.0,5.8,80,0.00,CLR,SKC,0.02,WeatherDisplay:10.37,2013-02-24 01:29:00,
2013-02-23 19:34:00,31.6,26.1,29.92,SSE,152,5.0,8.1,80,0.00,CLR,SKC,0.02,WeatherDisplay:10.37,2013-02-24 01:34:00,
2013-02-23 19:39:00,31.4,26.2,29.92,South,181,4.6,11.5,81,0.00,CLR,SKC,0.02,WeatherDisplay:10.37,2013-02-24 01:39:00,
2013-02-23 19:44:00,31.3,26.1,29.92,SE,146,6.0,8.1,81,0.00,CLR,SKC,0.02,WeatherDisplay:10.37,2013-02-24 01:44:00,
2013-02-23 19:49:00,31.3,26.1,29.92,South,177,5.5,6.9,81,0.00,CLR,SKC,0.02,WeatherDisplay:10.37,2013-02-24 01:49:00,
2013-02-23 19:54:00,31.2,26.0,29.92,SSE,154,4.2,9.2,81,0.00,CLR,SKC,0.02,WeatherDisplay:10.37,2013-02-24 01:54:00,
2013-02-23 19:59:00,31.2,26.0,29.92,SSW,200,3.4,5.8,81,0.00,CLR,SKC,0.02,WeatherDisplay:10.37,2013-02-24 01:59:00,
2013-02-23 20:04:00,31.0,25.9,29.92,South,181,3.9,3.9,81,0.00,CLR,SKC,0.02,WeatherDisplay:10.37,2013-02-24 02:04:00,
2013-02-23 20:09:00,31.0,25.9,29.92,South,191,4.0,6.9,81,0.00,CLR,SKC,0.02,WeatherDisplay:10.37,2013-02-24 02:09:00,
2013-02-23 20:14:00,30.9,25.8,29.92,SSE,151,3.1,3.5,81,0.00,CLR,SKC,0.02,WeatherDisplay:10.37,2013-02-24 02:14:00,
2013-02-23 20:19:00,30.7,25.9,29.93,SSE,167,3.3,4.6,82,0.00,CLR,SKC,0.02,WeatherDisplay:10.37,2013-02-24 02:19:00,
2013-02-23 20:24:00,30.7,25.9,29.92,SE,139,2.7,5.0,82,0.00,CLR,SKC,0.02,WeatherDisplay:10.37,2013-02-24 02:24:00,
2013-02-23 20:29:00,30.6,25.8,29.92,SE,129,3.4,5.8,82,0.00,CLR,SKC,0.02,WeatherDisplay:10.37,2013-02-24 02:29:00,
2013-02-23 20:34:00,30.7,25.9,29.92,SE,138,4.6,4.6,82,0.00,CLR,SKC,0.02,WeatherDisplay:10.37,2013-02-24 02:34:00,
2013-02-23 20:39:00,30.6,25.8,29.93,SSE,157,2.3,5.8,82,0.00,CLR,SKC,0.02,WeatherDisplay:10.37,2013-02-24 02:39:00,
2013-02-23 20:44:00,30.6,25.8,29.93,SSE,160,3.5,6.9,82,0.00,CLR,SKC,0.02,WeatherDisplay:10.37,2013-02-24 02:44:00,
2013-02-23 20:49:00,30.5,25.7,29.93,SE,142,3.7,6.0,82,0.00,CLR,SKC,0.02,WeatherDisplay:10.37,2013-02-24 02:49:00,
2013-02-23 20:54:00,30.4,25.6,29.93,SE,139,3.1,4.6,82,0.00,CLR,SKC,0.02,WeatherDisplay:10.37,2013-02-24 02:54:00,
2013-02-23 20:59:00,30.2,25.4,29.93,SSE,151,3.6,3.6,82,0.00,CLR,SKC,0.02,WeatherDisplay:10.37,2013-02-24 02:59:00,
2013-02-23 21:04:00,30.2,25.4,29.93,SSE,158,2.8,4.6,82,0.00,CLR,SKC,0.02,WeatherDisplay:10.37,2013-02-24 03:04:00,
2013-02-23 21:09:00,30.1,25.6,29.93,SE,132,3.6,5.0,83,0.00,CLR,SKC,0.02,WeatherDisplay:10.37,2013-02-24 03:09:00,
2013-02-23 21:14:00,30.0,25.5,29.93,SSE,148,2.6,4.6,83,0.00,CLR,SKC,0.02,WeatherDisplay:10.37,2013-02-24 03:14:00,
2013-02-23 21:19:00,29.7,25.2,29.93,SE,140,2.4,4.6,83,0.00,CLR,SKC,0.02,WeatherDisplay:10.37,2013-02-24 03:19:00,
2013-02-23 21:24:00,29.6,25.1,29.93,SE,136,2.8,4.6,83,0.00,CLR,SKC,0.02,WeatherDisplay:10.37,2013-02-24 03:24:00,
2013-02-23 21:29:00,29.4,24.9,29.94,SSE,158,2.9,5.8,83,0.00,CLR,SKC,0.02,WeatherDisplay:10.37,2013-02-24 03:29:00,
2013-02-23 21:34:00,29.2,25.0,29.94,South,174,3.2,4.0,84,0.00,CLR,SKC,0.02,WeatherDisplay:10.37,2013-02-24 03:34:00,
2013-02-23 21:39:00,29.0,24.8,29.94,South,191,2.1,3.5,84,0.00,CLR,SKC,0.02,WeatherDisplay:10.37,2013-02-24 03:39:00,
2013-02-23 21:44:00,28.9,25.0,29.94,SSE,153,2.1,3.5,85,0.00,CLR,SKC,0.02,WeatherDisplay:10.37,2013-02-24 03:44:00,
2013-02-23 21:49:00,28.8,24.9,29.94,ESE,115,2.8,6.9,85,0.00,CLR,SKC,0.02,WeatherDisplay:10.37,2013-02-24 03:49:00,
2013-02-23 21:54:00,28.7,24.8,29.94,SSE,162,3.1,4.0,85,0.00,CLR,SKC,0.02,WeatherDisplay:10.37,2013-02-24 03:54:00,
2013-02-23 21:59:00,28.6,24.7,29.94,ESE,108,3.1,3.5,85,0.00,CLR,SKC,0.02,WeatherDisplay:10.37,2013-02-24 03:59:00,
2013-02-23 22:04:00,28.6,24.7,29.95,SSW,198,1.8,3.5,85,0.00,CLR,SKC,0.02,WeatherDisplay:10.37,2013-02-24 04:04:00,
2013-02-23 22:09:00,28.5,24.6,29.95,South,179,1.2,2.3,85,0.00,CLR,SKC,0.02,WeatherDisplay:10.37,2013-02-24 04:09:00,
2013-02-23 22:14:00,28.4,24.7,29.95,South,183,2.9,5.8,86,0.00,CLR,SKC,0.02,WeatherDisplay:10.37,2013-02-24 04:14:00,
2013-02-23 22:19:00,28.4,24.7,29.95,SSE,153,3.3,4.6,86,0.00,CLR,SKC,0.02,WeatherDisplay:10.37,2013-02-24 04:19:00,
2013-02-23 22:24:00,28.4,24.7,29.95,South,177,2.2,3.5,86,0.00,CLR,SKC,0.02,WeatherDisplay:10.37,2013-02-24 04:24:00,
2013-02-23 22:29:00,28.4,24.7,29.95,SSE,158,1.8,3.5,86,0.00,CLR,SKC,0.02,WeatherDisplay:10.37,2013-02-24 04:29:00,
2013-02-23 22:34:00,28.3,24.6,29.95,SSE,166,2.7,3.5,86,0.00,CLR,SKC,0.02,WeatherDisplay:10.37,2013-02-24 04:34:00,
2013-02-23 22:39:00,28.4,24.7,29.95,South,172,3.3,5.8,86,0.00,CLR,SKC,0.02,WeatherDisplay:10.37,2013-02-24 04:39:00,
2013-02-23 22:44:00,28.4,24.7,29.95,SE,143,1.4,2.3,86,0.00,CLR,SKC,0.02,WeatherDisplay:10.37,2013-02-24 04:44:00,
2013-02-23 22:49:00,28.3,24.6,29.95,SSW,203,0.8,1.1,86,0.00,CLR,SKC,0.02,WeatherDisplay:10.37,2013-02-24 04:49:00,
2013-02-23 22:54:00,28.2,24.6,29.95,SSE,153,1.6,3.5,86,0.00,CLR,SKC,0.02,WeatherDisplay:10.37,2013-02-24 04:54:00,
2013-02-23 22:59:00,28.1,24.5,29.95,SE,142,2.2,3.5,86,0.00,CLR,SKC,0.02,WeatherDisplay:10.37,2013-02-24 04:59:00,
2013-02-23 23:00:00,28.1,24.5,29.95,SE,142,2.2,3.5,86,0.00,CLR,SKC,0.02,WeatherDisplay:10.37,2013-02-24 05:00:00,
2013-02-23 23:05:00,28.0,24.4,29.95,SE,142,1.4,2.3,86,0.00,CLR,SKC,0.02,WeatherDisplay:10.37,2013-02-24 05:05:00,
2013-02-23 23:10:00,27.8,24.2,29.95,SE,141,2.5,3.5,86,0.00,CLR,SKC,0.02,WeatherDisplay:10.37,2013-02-24 05:10:00,
2013-02-23 23:15:00,27.7,24.1,29.95,SSE,163,1.4,3.5,86,0.00,CLR,SKC,0.02,WeatherDisplay:10.37,2013-02-24 05:15:00,
2013-02-23 23:20:00,27.6,24.2,29.95,SSE,167,1.8,3.5,87,0.00,CLR,SKC,0.02,WeatherDisplay:10.37,2013-02-24 05:20:00,
2013-02-23 23:25:00,27.5,24.1,29.95,SSE,160,1.7,3.5,87,0.00,CLR,SKC,0.02,WeatherDisplay:10.37,2013-02-24 05:25:00,
2013-02-23 23:30:00,27.4,24.0,29.95,SSE,152,1.9,3.5,87,0.00,CLR,SKC,0.02,WeatherDisplay:10.37,2013-02-24 05:30:00,
2013-02-23 23:35:00,27.3,23.9,29.95,SE,136,1.0,2.3,87,0.00,CLR,SKC,0.02,WeatherDisplay:10.37,2013-02-24 05:35:00,
2013-02-23 23:40:00,27.1,23.7,29.95,SSE,158,2.2,3.5,87,0.00,CLR,SKC,0.02,WeatherDisplay:10.37,2013-02-24 05:40:00,
2013-02-23 23:45:00,27.1,23.7,29.95,SSE,152,2.0,2.3,87,0.00,CLR,SKC,0.02,WeatherDisplay:10.37,2013-02-24 05:45:00,
2013-02-23 23:50:00,26.9,23.5,29.96,SSW,193,1.6,2.3,87,0.00,CLR,SKC,0.02,WeatherDisplay:10.37,2013-02-24 05:50:00,
2013-02-23 23:55:00,26.8,23.4,29.96,South,184,1.2,3.5,87,0.00,CLR,SKC,0.02,WeatherDisplay:10.37,2013-02-24 05:55:00,